KC8ZBC Weather Reports


time (UTC)temp
C
wind
direction
speed
KPH
gust
KPH
rain 1hr
cm
rain 24hr
cm
rain mn
cm
humidity
%
barometer
mb
20260502130440 3 0 3.2 12.9 0.00 0.00 0.00 69 992.6
20260502123422 2 320 6.4 8.0 0.00 0.00 0.00 77 992.5
20260502122920 2 323 9.7 9.7 0.00 0.00 0.00 79 992.7
20260502122415 2 32 4.8 9.7 0.00 0.00 0.00 79 992.6
20260502121914 2 356 3.2 11.3 0.00 0.00 0.00 81 992.6
20260502121410 1 290 8.0 8.0 0.00 0.00 0.00 82 992.5
20260502120908 1 266 3.2 8.0 0.00 0.00 0.00 82 992.8
20260502120404 1 336 3.2 4.8 0.00 0.00 0.00 84 992.6
20260502115901 1 325 4.8 6.4 0.00 0.00 0.00 85 992.7
20260502115359 1 294 1.6 3.2 0.00 0.00 0.00 87 992.6
20260502114855 1 304 3.2 3.2 0.00 0.00 0.00 90 992.6
20260502114352 1 75 0.0 3.2 0.00 0.00 0.00 92 992.5
20260502113849 1 26 0.0 3.2 0.00 0.00 0.00 93 992.6
20260502113346 1 255 1.6 4.8 0.00 0.00 0.00 93 992.4
20260502112844 1 306 1.6 3.2 0.00 0.00 0.00 94 992.5
20260502112341 1 249 1.6 3.2 0.00 0.00 0.00 94 992.4
20260502111839 0 251 0.0 1.6 0.00 0.00 0.00 94 992.4
20260502111336 0 98 0.0 1.6 0.00 0.00 0.00 95 992.2
20260502110834 0 264 0.0 0.0 0.00 0.00 0.00 95 992.4
20260502110332 0 323 0.0 3.2 0.00 0.00 0.00 95 992.4
20260502105829 0 263 0.0 1.6 0.00 0.00 0.00 96 992.3
20260502105325 0 15 0.0 0.0 0.00 0.00 0.00 96 992.1
20260502104823 0 114 0.0 0.0 0.00 0.00 0.00 96 992.1
20260502104320 0 114 0.0 0.0 0.00 0.00 0.00 96 992.2
20260502103818 0 120 0.0 0.0 0.00 0.00 0.00 96 992.2
20260502103315 0 120 0.0 0.0 0.00 0.00 0.00 96 992.2
20260502102812 0 120 0.0 0.0 0.00 0.00 0.00 96 992.0
20260502102308 0 90 0.0 1.6 0.00 0.00 0.00 96 992.1
20260502101807 0 114 0.0 0.0 0.00 0.00 0.00 96 992.0
20260502101304 0 98 0.0 1.6 0.00 0.00 0.00 96 992.0
20260502100802 0 160 0.0 0.0 0.00 0.00 0.00 95 991.9
20260502100301 0 160 0.0 1.6 0.00 0.00 0.00 95 991.9
20260502091235 0 106 0.0 0.0 0.00 0.00 0.00 92 991.7
20260502090732 1 29 0.0 1.6 0.00 0.00 0.00 92 991.9
20260502090229 1 120 0.0 3.2 0.00 0.00 0.00 92 991.6
20260502071130 1 95 3.2 4.8 0.00 0.00 0.00 89 991.6
20260502070628 1 90 3.2 4.8 0.00 0.00 0.00 89 991.6
20260502070125 1 85 3.2 3.2 0.00 0.00 0.00 89 991.7
20260502065624 1 83 4.8 4.8 0.00 0.00 0.00 89 991.6
20260502065121 1 90 3.2 3.2 0.00 0.00 0.00 88 991.6
20260502064619 1 82 0.0 1.6 0.00 0.00 0.00 88 991.7
20260502064116 1 90 3.2 4.8 0.00 0.00 0.00 88 991.8
20260502063614 1 102 1.6 3.2 0.00 0.00 0.00 88 991.7
20260502063111 1 101 3.2 4.8 0.00 0.00 0.00 88 991.9
20260502062608 1 86 4.8 4.8 0.00 0.00 0.00 88 991.9
20260502062106 1 94 4.8 6.4 0.00 0.00 0.00 88 992.0
20260502061604 1 87 4.8 6.4 0.00 0.00 0.00 87 991.9
20260502061101 1 84 4.8 6.4 0.00 0.00 0.00 87 991.9
20260502060556 2 78 4.8 6.4 0.00 0.00 0.00 87 992.1
20260502060053 2 75 3.2 4.8 0.00 0.00 0.00 86 992.2
20260502055550 2 90 4.8 8.0 0.00 0.00 0.00 86 992.0
20260502055049 2 96 8.0 8.0 0.00 0.00 0.00 86 992.1
20260502054548 2 77 3.2 4.8 0.00 0.00 0.00 85 992.2
20260502054044 2 80 3.2 4.8 0.00 0.00 0.00 86 992.2
20260502053541 2 113 3.2 3.2 0.00 0.00 0.00 86 992.3
20260502053039 2 90 4.8 4.8 0.00 0.00 0.00 86 992.3
20260502052537 2 90 4.8 6.4 0.00 0.00 0.00 86 992.2
20260502052035 2 90 4.8 6.4 0.00 0.00 0.00 85 992.3
20260502051533 2 90 8.0 9.7 0.00 0.00 0.00 86 992.1
20260502051030 2 93 6.4 9.7 0.00 0.00 0.00 86 992.0
20260502050526 2 90 6.4 8.0 0.00 0.00 0.00 85 992.1
20260502050023 2 90 4.8 6.4 0.00 0.00 0.00 85 991.8
20260502045520 2 80 4.8 9.7 0.00 0.00 0.00 85 991.8
20260502045017 2 93 4.8 9.7 0.00 0.00 0.00 84 991.8
20260502044513 2 96 6.4 8.0 0.00 0.00 0.00 84 991.6
20260502044010 2 72 4.8 6.4 0.00 0.00 0.00 83 991.5
20260502043508 2 90 3.2 6.4 0.00 0.00 0.00 83 991.9
20260502043003 2 86 3.2 6.4 0.00 0.00 0.00 82 991.6
20260502042459 2 80 3.2 4.8 0.00 0.00 0.00 82 991.6
20260502041956 3 99 3.2 4.8 0.00 0.00 0.00 82 991.6
20260502041454 3 82 3.2 4.8 0.00 0.00 0.00 82 991.6
20260502040950 3 90 4.8 4.8 0.00 0.00 0.00 81 991.6
20260502040447 3 84 4.8 4.8 0.00 0.00 0.00 81 991.6
20260502035943 3 111 4.8 6.4 0.00 0.00 0.00 82 991.5
20260502035440 3 99 4.8 4.8 0.00 0.00 0.00 81 991.5
20260502034938 3 98 1.6 4.8 0.00 0.00 0.00 81 991.6
20260502034436 3 90 4.8 4.8 0.00 0.00 0.00 81 991.6
20260502033934 3 90 4.8 4.8 0.00 0.00 0.00 81 991.3
20260502033431 3 103 6.4 6.4 0.00 0.00 0.00 81 991.3
20260502032928 3 101 4.8 4.8 0.00 0.00 0.00 81 991.4
20260502032425 3 86 4.8 4.8 0.00 0.00 0.00 81 991.4
20260502031922 3 100 4.8 4.8 0.00 0.00 0.00 81 991.2
20260502031420 3 95 3.2 4.8 0.00 0.00 0.00 81 991.3
20260502030918 3 99 3.2 4.8 0.00 0.00 0.00 81 991.3
20260502030416 3 100 4.8 4.8 0.00 0.00 0.00 80 991.3
20260502025914 3 99 4.8 4.8 0.00 0.00 0.00 80 991.4
20260502025410 3 99 4.8 4.8 0.00 0.00 0.00 79 991.4
20260502024908 3 99 8.0 8.0 0.00 0.00 0.00 79 991.2
20260502024406 3 77 4.8 4.8 0.00 0.00 0.00 79 991.4
20260502023904 3 32 4.8 6.4 0.00 0.00 0.00 79 991.4
20260502023401 3 90 4.8 6.4 0.00 0.00 0.00 78 991.4
20260502022859 3 87 4.8 8.0 0.00 0.00 0.00 78 991.2
20260502022355 3 92 8.0 11.3 0.00 0.00 0.00 78 991.4
20260502021852 3 87 9.7 11.3 0.00 0.00 0.00 78 991.2
20260502021349 3 98 4.8 6.4 0.00 0.00 0.00 79 991.1
20260502020846 3 43 4.8 9.7 0.00 0.00 0.00 78 991.4
20260502020344 3 101 6.4 11.3 0.00 0.00 0.00 78 991.0
20260502015841 3 71 6.4 11.3 0.00 0.00 0.00 78 991.0
20260502015338 4 97 6.4 9.7 0.00 0.00 0.00 77 990.9
20260502014835 4 100 4.8 9.7 0.00 0.00 0.00 75 990.8
20260502014332 5 90 9.7 11.3 0.00 0.00 0.00 73 990.9
20260502013828 5 60 0.0 3.2 0.00 0.00 0.00 73 990.8
20260502013324 5 98 0.0 8.0 0.00 0.00 0.00 71 991.0
20260502012820 5 96 0.0 6.4 0.00 0.00 0.00 70 990.6
20260502012319 5 123 1.6 6.4 0.00 0.00 0.00 69 990.6
20260502011815 5 5 1.6 3.2 0.00 0.00 0.00 70 990.7
20260502011312 5 36 3.2 3.2 0.00 0.00 0.00 70 990.4
20260502010809 5 35 0.0 3.2 0.00 0.00 0.00 71 990.7
20260502010305 5 35 0.0 1.6 0.00 0.00 0.00 72 990.3
20260502005802 5 165 0.0 0.0 0.00 0.00 0.00 72 990.3
20260502005300 5 165 0.0 0.0 0.00 0.00 0.00 71 990.3
20260502004757 5 82 0.0 0.0 0.00 0.00 0.00 70 990.0
20260502004253 5 82 0.0 0.0 0.00 0.00 0.00 69 990.2
20260502003751 5 82 0.0 0.0 0.00 0.00 0.00 69 990.2
20260502003248 5 82 0.0 0.0 0.00 0.00 0.00 68 990.1
20260502002743 5 29 0.0 0.0 0.00 0.00 0.00 68 990.1
20260502002241 5 66 0.0 0.0 0.00 0.00 0.00 67 990.1
20260502001738 5 66 1.6 3.2 0.00 0.00 0.00 67 990.1
20260502001237 5 289 1.6 1.6 0.00 0.00 0.00 67 990.0
20260502000734 5 291 0.0 3.2 0.00 0.00 0.00 67 990.0
20260502000233 5 311 0.0 3.2 0.00 0.00 0.00 67 990.0
20260501235732 6 354 1.6 3.2 0.00 0.00 0.00 66 990.1
20260501235228 6 6 0.0 0.0 0.00 0.00 0.00 66 989.9
20260501234724 6 286 0.0 3.2 0.00 0.00 0.00 66 990.0
20260501234222 6 40 1.6 4.8 0.00 0.00 0.00 65 990.0
20260501233720 6 68 4.8 6.4 0.00 0.00 0.00 66 990.0
20260501233217 6 0 0.0 3.2 0.00 0.00 0.00 65 990.0
20260501232712 6 295 0.0 3.2 0.00 0.00 0.00 64 989.9
20260501232210 6 246 0.0 4.8 0.00 0.00 0.00 66 989.7
20260501231708 6 75 1.6 6.4 0.00 0.00 0.00 65 989.8
20260501231205 6 19 3.2 3.2 0.00 0.00 0.00 65 990.0
20260501230704 6 0 3.2 4.8 0.00 0.00 0.00 65 990.0
20260501230202 6 0 3.2 4.8 0.00 0.00 0.00 64 989.9
20260501225659 6 345 0.0 9.7 0.00 0.00 0.00 64 990.0
20260501225155 6 334 3.2 6.4 0.00 0.00 0.00 64 989.9
20260501224652 6 333 4.8 4.8 0.00 0.00 0.00 63 989.9
20260501224149 6 295 0.0 4.8 0.00 0.00 0.00 63 989.9
20260501223646 6 321 4.8 6.4 0.00 0.00 0.00 61 989.9
20260501223142 6 105 0.0 6.4 0.00 0.00 0.00 62 989.9
20260501222638 6 315 4.8 8.0 0.00 0.00 0.00 60 989.8
20260501222135 6 283 4.8 11.3 0.00 0.00 0.00 60 989.6
20260501221632 6 270 0.0 8.0 0.00 0.00 0.00 62 989.8
20260501221130 6 75 1.6 8.0 0.00 0.00 0.00 61 989.8
20260501220627 6 286 3.2 8.0 0.00 0.00 0.00 61 989.8
20260501220124 6 0 3.2 8.0 0.00 0.00 0.00 62 989.7
20260501215621 6 39 4.8 9.7 0.00 0.00 0.00 61 989.8
20260501215116 7 70 3.2 8.0 0.00 0.00 0.00 59 989.6
20260501214611 7 35 1.6 6.4 0.00 0.00 0.00 60 989.5
20260501214107 7 20 1.6 6.4 0.00 0.00 0.00 59 989.7
20260501213604 7 47 4.8 6.4 0.00 0.00 0.00 60 989.3
20260501213100 7 296 6.4 11.3 0.00 0.00 0.00 59 989.3
20260501212557 7 52 9.7 11.3 0.00 0.00 0.00 59 989.4
20260501212054 7 62 4.8 8.0 0.00 0.00 0.00 60 989.4
20260501211550 7 290 6.4 8.0 0.00 0.00 0.00 59 989.5
20260501211049 7 349 6.4 9.7 0.00 0.00 0.00 60 989.1
20260501210544 6 342 0.0 6.4 0.00 0.00 0.00 59 989.2
20260501210041 6 349 1.6 6.4 0.00 0.00 0.00 59 989.2
20260501205538 6 300 3.2 8.0 0.00 0.00 0.00 60 989.3
20260501205036 7 303 1.6 3.2 0.00 0.00 0.00 59 989.2
20260501204532 7 0 3.2 3.2 0.00 0.00 0.00 59 989.2
20260501204028 7 7 3.2 4.8 0.00 0.00 0.00 58 989.2
20260501203525 7 6 6.4 6.4 0.00 0.00 0.00 58 989.3
20260501203022 7 299 3.2 11.3 0.00 0.00 0.00 57 989.0
20260501202519 7 209 1.6 9.7 0.00 0.00 0.00 57 989.0
20260501202015 7 0 3.2 8.0 0.00 0.00 0.00 56 989.2
20260501201513 7 346 4.8 8.0 0.00 0.00 0.00 58 989.1
20260501201009 7 298 4.8 6.4 0.00 0.00 0.00 55 989.1
20260501200507 8 6 1.6 3.2 0.00 0.00 0.00 56 989.2
20260501200004 7 285 0.0 4.8 0.00 0.00 0.00 58 989.1
20260501195501 7 303 6.4 11.3 0.00 0.00 0.00 57 989.1
20260501194956 7 82 4.8 11.3 0.00 0.00 0.00 57 989.1
20260501194452 7 286 6.4 8.0 0.00 0.00 0.00 57 988.9
20260501193948 7 312 6.4 12.9 0.00 0.00 0.00 55 989.0
20260501193446 7 270 6.4 8.0 0.00 0.00 0.00 57 988.9
20260501192944 7 298 4.8 8.0 0.00 0.00 0.00 58 989.0
20260501192441 7 322 4.8 8.0 0.00 0.00 0.00 57 989.1
20260501191938 7 292 6.4 9.7 0.00 0.00 0.00 59 989.1
20260501191435 7 55 0.0 8.0 0.00 0.00 0.00 59 989.0
20260501190932 7 330 4.8 8.0 0.00 0.00 0.00 58 989.1
20260501190428 7 301 3.2 6.4 0.00 0.00 0.00 59 988.8
20260501185923 7 258 0.0 4.8 0.00 0.00 0.00 59 989.0
20260501185420 7 295 8.0 9.7 0.00 0.00 0.00 59 989.0
20260501184915 7 303 4.8 6.4 0.00 0.00 0.00 61 989.0
20260501184412 7 27 6.4 8.0 0.00 0.00 0.00 60 988.8
20260501183907 7 90 4.8 9.7 0.00 0.00 0.00 59 988.8
20260501183405 7 336 3.2 6.4 0.00 0.00 0.00 59 988.8
20260501182901 7 4 3.2 4.8 0.00 0.00 0.00 61 988.7
20260501182358 7 180 3.2 4.8 0.00 0.00 0.00 58 988.7
20260501181854 7 286 0.0 6.4 0.00 0.00 0.00 59 988.8
20260501181352 7 330 4.8 9.7 0.00 0.00 0.00 56 988.8
20260501180849 8 36 3.2 8.0 0.00 0.00 0.00 56 988.5
20260501180345 7 254 3.2 9.7 0.00 0.00 0.00 60 988.6
20260501175842 7 74 3.2 11.3 0.00 0.00 0.00 60 988.7
20260501175338 7 55 6.4 8.0 0.00 0.00 0.00 61 988.6
20260501174836 7 37 3.2 4.8 0.00 0.00 0.00 62 988.9
20260501174333 7 32 3.2 6.4 0.00 0.00 0.00 66 988.7
20260501173831 7 246 6.4 8.0 0.00 0.00 0.00 64 988.9
20260501173328 6 328 0.0 8.0 0.00 0.00 0.00 63 988.7
20260501172823 6 293 4.8 6.4 0.00 0.00 0.00 64 988.8
20260501172319 6 352 4.8 8.0 0.00 0.00 0.00 63 988.7
20260501171815 6 356 3.2 4.8 0.00 0.00 0.00 64 988.9
20260501171312 6 327 6.4 9.7 0.00 0.00 0.00 62 988.8
20260501170808 6 42 4.8 4.8 0.00 0.00 0.00 63 988.6
20260501170305 6 349 6.4 8.0 0.00 0.00 0.00 63 988.7
20260501165803 7 346 3.2 8.0 0.00 0.00 0.00 60 988.6
20260501165301 7 25 4.8 6.4 0.00 0.00 0.00 59 988.5
20260501164758 7 35 4.8 6.4 0.00 0.00 0.00 58 988.6
20260501164255 7 6 0.0 12.9 0.00 0.00 0.00 57 988.8
20260501163750 7 55 8.0 8.0 0.00 0.00 0.00 57 988.5
20260501163248 7 43 6.4 11.3 0.00 0.00 0.00 56 988.7
20260501162744 7 3 8.0 9.7 0.00 0.00 0.00 56 988.8
20260501162241 7 6 4.8 14.5 0.00 0.00 0.00 55 988.8
20260501161738 7 348 4.8 8.0 0.00 0.00 0.00 57 988.6
20260501161235 7 117 8.0 17.7 0.00 0.00 0.00 58 988.4
20260501160731 7 42 4.8 14.5 0.00 0.00 0.00 58 988.4
20260501160229 8 100 9.7 14.5 0.00 0.00 0.00 56 988.6
20260501155726 8 203 0.0 6.4 0.00 0.00 0.00 60 988.7
20260501155223 7 49 1.6 9.7 0.00 0.00 0.00 59 988.6
20260501154719 7 85 4.8 14.5 0.00 0.00 0.00 59 988.8
20260501154216 8 320 4.8 8.0 0.00 0.00 0.00 57 988.6
20260501153714 7 177 3.2 12.9 0.00 0.00 0.00 58 988.7
20260501153211 7 81 9.7 9.7 0.00 0.00 0.00 66 988.7
20260501152707 7 85 12.9 16.1 0.00 0.00 0.00 65 988.6
20260501152204 7 81 3.2 9.7 0.00 0.00 0.00 66 988.9
20260501151701 7 337 3.2 6.4 0.00 0.00 0.00 67 988.8
20260501151158 7 0 3.2 8.0 0.00 0.00 0.00 65 988.7
20260501150654 7 60 4.8 6.4 0.00 0.00 0.00 67 988.8
20260501150151 6 8 4.8 4.8 0.00 0.00 0.00 72 988.9
20260501145646 6 319 3.2 9.7 0.00 0.00 0.00 71 988.7
20260501145145 7 98 6.4 12.9 0.00 0.00 0.00 69 988.8
20260501144641 7 93 11.3 12.9 0.00 0.00 0.00 70 988.7
20260501144136 6 88 8.0 12.9 0.00 0.00 0.00 71 988.9
20260501143632 6 49 8.0 9.7 0.00 0.00 0.00 73 989.0
20260501143130 6 297 3.2 6.4 0.00 0.00 0.00 75 988.8